Location: Ellerstadt
(49.4644°N, 8.2615°E)
Time: 10:10:54
(UTC+00:00)

Altair - All Passes

Search period start: 15 June 2021 00:00
Search period end: 25 June 2021 00:00
Orbit: 1501 x 1683 km, 47.2° (Epoch: 14 June)

Date Brightness Start Highest point End Pass type
(mag) Time Alt. Az. Time Alt. Az. Time Alt. Az.
15 Jun - 11:26:23 10° SSE 11:30:17 13° ESE 11:34:14 10° E daylight
15 Jun - 13:24:08 10° SSW 13:32:49 42° SE 13:41:50 10° ENE daylight
15 Jun - 15:27:11 10° WSW 15:36:47 74° SSE 15:46:46 10° E daylight
15 Jun - 17:31:38 10° W 17:41:27 76° S 17:51:34 10° ESE daylight
15 Jun - 19:36:20 10° WNW 19:45:39 47° SW 19:55:08 10° SE daylight
15 Jun - 21:42:49 10° W 21:48:34 17° SW 21:54:21 10° SSW visible
16 Jun - 11:02:35 10° SE 11:05:19 11° ESE 11:08:04 10° ESE daylight
16 Jun - 12:59:13 10° SSW 13:07:44 40° SE 13:16:34 10° ENE daylight
16 Jun - 15:02:03 10° WSW 15:11:36 72° SSE 15:21:32 10° E daylight
16 Jun - 17:06:28 10° W 17:16:15 77° S 17:26:21 10° ESE daylight
16 Jun - 19:11:08 10° WNW 19:20:31 49° SSW 19:30:05 10° SE daylight
16 Jun - 21:17:16 10° W 21:23:32 19° SW 21:29:51 10° SSW visible
17 Jun - 12:34:19 10° SSW 12:42:39 37° SE 12:51:18 10° ENE daylight
17 Jun - 14:36:56 10° WSW 14:46:26 70° SSE 14:56:18 10° E daylight
17 Jun - 16:41:19 10° W 16:51:03 78° S 17:01:09 10° ESE daylight
17 Jun - 18:45:56 10° WNW 18:55:22 52° SSW 19:05:02 10° SE daylight
17 Jun - 20:51:48 10° W 20:58:30 21° SW 21:05:17 10° S visible
18 Jun - 12:09:27 10° SSW 12:17:35 35° SE 12:26:01 10° ENE daylight
18 Jun - 14:11:50 10° WSW 14:21:16 68° SSE 14:31:05 10° E daylight
18 Jun - 16:16:08 10° W 16:25:51 79° S 16:35:56 10° ESE daylight
18 Jun - 18:20:45 10° WNW 18:30:14 54° SSW 18:39:58 10° SE daylight
18 Jun - 20:26:22 10° W 20:33:27 22° SW 20:40:38 10° S visible
19 Jun - 11:44:36 10° SSW 11:52:32 32° SE 12:00:42 10° E daylight
19 Jun - 13:46:44 10° WSW 13:56:06 66° SSE 14:05:51 10° E daylight
19 Jun - 15:50:58 10° W 16:00:39 79° S 16:10:42 10° E daylight
19 Jun - 17:55:34 10° WNW 18:05:05 57° SSW 18:14:51 10° SE daylight
19 Jun - 20:00:59 10° W 20:08:25 24° SW 20:15:56 10° S daylight
20 Jun - 11:19:48 10° SSW 11:27:29 30° SE 11:35:24 10° E daylight
20 Jun - 13:21:39 10° SW 13:30:57 64° SSE 13:40:38 10° E daylight
20 Jun - 15:25:49 10° W 15:35:27 80° S 15:45:28 10° E daylight
20 Jun - 17:30:23 10° W 17:39:55 59° SSW 17:49:44 10° SE daylight
20 Jun - 19:35:39 10° W 19:43:21 26° SW 19:51:10 10° S daylight
21 Jun - 10:55:02 10° S 11:02:27 28° SE 11:10:04 10° E daylight
21 Jun - 12:56:35 10° SW 13:05:48 62° SSE 13:15:24 10° E daylight
21 Jun - 15:00:39 10° W 15:10:15 80° S 15:20:15 10° E daylight
21 Jun - 17:05:12 10° W 17:14:46 61° SSW 17:24:37 10° SE daylight
21 Jun - 19:10:20 10° W 19:18:17 28° SW 19:26:22 10° S daylight
22 Jun - 10:30:17 10° S 10:37:25 25° SE 10:44:43 10° E daylight
22 Jun - 12:31:31 10° SW 12:40:40 59° SSE 12:50:11 10° E daylight
22 Jun - 14:35:30 10° W 14:45:03 80° S 14:55:01 10° E daylight
22 Jun - 16:40:03 10° W 16:49:35 64° SSW 16:59:28 10° SE daylight
22 Jun - 18:45:03 10° W 18:53:12 30° SW 19:01:31 10° SSE daylight
23 Jun - 10:05:36 10° S 10:12:24 23° SE 10:19:21 10° E daylight
23 Jun - 12:06:28 10° SW 12:15:32 56° SSE 12:24:57 10° ENE daylight
23 Jun - 14:10:20 10° W 14:19:52 79° S 14:29:47 10° E daylight
23 Jun - 16:14:52 10° W 16:24:25 66° SSW 16:34:19 10° ESE daylight
23 Jun - 18:19:47 10° W 18:28:08 33° SW 18:36:38 10° SSE daylight
24 Jun - 09:40:58 10° S 09:47:23 21° SE 09:53:57 10° E daylight
24 Jun - 11:41:27 10° SW 11:50:25 54° SSE 11:59:43 10° ENE daylight
24 Jun - 13:45:12 10° W 13:54:41 79° S 14:04:34 10° E daylight
24 Jun - 15:49:42 10° W 15:59:15 68° SSW 16:09:09 10° ESE daylight
24 Jun - 17:54:32 10° W 18:03:02 35° SW 18:11:45 10° SSE daylight
